Location: Béaulencourt
(50.0796°N, 2.8795°E)
Time: 03:22:27
(UTC+00:00)

ARIANE 6 FM1 Upper Stage - Pass Details

Date: 14 March 2026
Orbit: 525 x 604 km, 62.0° (Epoch: 17 April)

Event Time Altitude Azimuth Distance (km) Brightness Sun altitude
Exits shadow 02:47:00 14° 106° (ESE) 1,579 5.3 -30.6°
Drops below altitude 10° 02:48:30 10° 84° (E) 1,802 5.9 -30.4°
Sets 02:51:32 0° 60° (ENE) 2,685 7.3 -30.0°
